Airfield :
LOGIN :

Register | Disclaimer

   EN    FR    IT 

 










Legend :    VFR   Marginal VFR   IFR   Intensive IFR   Very Intensive IFR
Visi :
Ceiling :
>= 8 km
>= 3000ft
5 to 8 km
1000 to 3000 ft
1500m to 5 km
500 to 1000 ft
800 to 1500m
200 to 500 ft
< 800m
< 200 ft
Symbols :   Thunderstorms  Fog  Heavy snow  Heavy precipitations  Wind > 20 kt
SIGMETs :     Misc.  Thunderstorms  Icing  Turbulence  Mountain Waves  Volcanic Ashes







- Airport Elevation : 138 ft
- IATA code : RLG


ETNL - Rostock Laage

CURRENT METAR :
  • 251820Z 21003KT 9999 FEW040 BKN260 08/05 Q1036 BLU+

EXPIRED METARs :
  • 251720Z 25003KT 9999 FEW040 BKN290 10/04 Q1036 BLU+
  • 251620Z 27008KT 9999 FEW040 SCT360 12/04 Q1036 BLU+

TAF AMD TAF ETNL
Valid from the 25 at 16:00 until the 25 at 23:00 UTC


251610Z 2516/2523 30010KT 9999 NSW SCT050
BECMG 2516/2518 22005KT 9999 NSW FEW050 CANCEL 1700Z BY ETGL
No reported NOTAMs for that airfield.



MET'MAP, your aeronautical weather chart ! - Copyright ORBIFLY December 2007 - Disclaimer

ORBIFLY MET'MAP TEAM :

Programming & Development : Alexandra Zaïnal
Concept & Development : Baudouin d'Aumeries
Co-Development & Prog : Marc-Olivier Méhu
Technical & hardware support : Manuel Goepfert

Contact : metmap@orbifly.com




SOURCES & CREDITS :

   NOAA